Change the Weather History Date:

Sunday, October 24, 2010

  Actual Average Record
Temperature  
Mean Temperature 68 °F 52 °F  
Max Temperature 76 °F 65 °F 79 °F (2000)
Min Temperature 59 °F 40 °F 28 °F (1999)
Degree Days  
Heating Degree Days 0 13  
Month to date heating degree days 198 236  
Since 1 July heating degree days 238 321  
Cooling Degree Days 3 0  
Month to date cooling degree days 9 11  
Year to date cooling degree days 1317 924  
Growing Degree Days 18 (Base 50)    
Moisture  
Dew Point 49 °F    
Average Humidity 54    
Maximum Humidity 78    
Minimum Humidity 30    
Precipitation  
Precipitation T in 0.11 in 0.98 in (2001)
Month to date precipitation 0.32 2.79  
Year to date precipitation 30.75 39.33  
Sea Level Pressure  
Sea Level Pressure 29.89 in    
Wind  
Wind Speed 12 mph (South)    
Max Wind Speed 24 mph    
Max Gust Speed 32 mph    
Visibility 10 miles    
Events Rain    
T = Trace of Precipitation, MM = Missing Value Source: NWS Daily Summary

Daily Weather History Graph

Daily Weather History Graph

Search for Another Location

Airport or City:

Trip Planner

Search our weather history database for the weather conditions in past years. The results will help you decide how hot, cold, wet, or windy it might be!

Date:

Astronomy

Oct. 24, 2010 Rise Set
Actual Time 8:05 AM EDT 6:55 PM EDT
Civil Twilight 7:38 AM EDT 7:22 PM EDT
Nautical Twilight 7:06 AM EDT 7:53 PM EDT
Astronomical Twilight 6:35 AM EDT 8:24 PM EDT
Moon 7:38 PM EDT (10/24) 9:45 AM EDT (10/24)
Length of Visible Light 11h 44m
Length of Day
10h 49m
Full, 97% of the Moon is Illuminated
Oct 24
Full
Oct 30
Last Quarter
Nov 6
New
Nov 13
First Quarter
Nov 21
Full

Hourly Weather History & Observations

Time (EDT) Temp. Dew Point Humidity Pressure Visibility Wind Dir Wind Speed Gust Speed Precip Events Conditions
12:53 AM 62.1 °F 36.0 °F 38% 30.01 in 10.0 mi SE 5.8 mph - N/A   Partly Cloudy
1:53 AM 66.0 °F 36.0 °F 33% 30.00 in 10.0 mi South 9.2 mph - N/A   Clear
2:53 AM 68.0 °F 36.0 °F 31% 29.99 in 10.0 mi SSW 10.4 mph 19.6 mph N/A   Partly Cloudy
3:53 AM 64.9 °F 37.9 °F 37% 29.98 in 10.0 mi SSE 6.9 mph - 0.00 in Rain Light Rain
4:53 AM 60.1 °F 37.9 °F 44% 29.97 in 10.0 mi SSE 6.9 mph - 0.00 in   Clear
5:53 AM 60.1 °F 39.0 °F 46% 29.96 in 10.0 mi SSE 6.9 mph - N/A   Clear
6:53 AM 60.1 °F 41.0 °F 49% 29.96 in 10.0 mi SSE 9.2 mph - N/A   Clear
7:53 AM 60.1 °F 42.1 °F 51% 29.96 in 10.0 mi SSE 8.1 mph - N/A   Clear
8:53 AM 60.1 °F 43.0 °F 53% 29.96 in 10.0 mi SE 9.2 mph - N/A   Mostly Cloudy
9:53 AM 66.0 °F 46.0 °F 48% 29.97 in 10.0 mi South 9.2 mph - N/A   Mostly Cloudy
10:53 AM 72.0 °F 51.1 °F 48% 29.95 in 10.0 mi SSW 17.3 mph 25.3 mph N/A   Scattered Clouds
11:53 AM 71.1 °F 53.1 °F 53% 29.93 in 10.0 mi SSW 16.1 mph 26.5 mph N/A   Mostly Cloudy
12:53 PM 71.1 °F 54.0 °F 55% 29.91 in 10.0 mi SSW 12.7 mph 21.9 mph 0.00 in   Overcast
1:53 PM 73.0 °F 54.0 °F 51% 29.88 in 10.0 mi SSW 13.8 mph 23.0 mph N/A   Mostly Cloudy
2:53 PM 75.9 °F 55.0 °F 48% 29.85 in 10.0 mi SSW 17.3 mph 29.9 mph 0.00 in   Partly Cloudy
3:53 PM 75.0 °F 55.9 °F 51% 29.84 in 10.0 mi South 21.9 mph 32.2 mph 0.00 in   Mostly Cloudy
4:53 PM 72.0 °F 55.9 °F 57% 29.83 in 10.0 mi South 13.8 mph 19.6 mph N/A   Overcast
5:53 PM 73.0 °F 55.9 °F 55% 29.81 in 10.0 mi SSW 12.7 mph - N/A   Overcast
6:53 PM 72.0 °F 55.9 °F 57% 29.80 in 10.0 mi South 6.9 mph - N/A   Overcast
7:53 PM 71.1 °F 57.0 °F 61% 29.80 in 10.0 mi SSW 17.3 mph 27.6 mph N/A   Overcast
8:53 PM 68.0 °F 57.9 °F 70% 29.81 in 10.0 mi SSW 12.7 mph 20.7 mph N/A   Mostly Cloudy
9:53 PM 64.9 °F 57.9 °F 78% 29.79 in 10.0 mi South 13.8 mph 21.9 mph N/A   Partly Cloudy
10:53 PM 64.0 °F 57.9 °F 80% 29.76 in 10.0 mi South 11.5 mph - N/A   Clear
11:53 PM 64.0 °F 57.9 °F 80% 29.75 in 10.0 mi South 10.4 mph - N/A   Scattered Clouds